Regional Weather Roundup
Issued by NWS

Home | Current Version | Previous Version | Graphics & Text | Print | Product List | Glossary On
Versions: 1 2 3 4 5 6 7 8 9 10 11 12 13 14 15 16 17 18 19 20 21 22 23 24 25 26 27 28 29 30 31 32 33 34 35 36 37 38 39 40 41 42 43 44 45 46 47 48 49 50
000
ASUS43 KBIS 270010
RWRND

NORTH DAKOTA REGIONAL WEATHER ROUNDUP
NATIONAL WEATHER SERVICE BISMARCK ND
600 PM CST MON JAN 26 2015

NOTE: "FAIR" INDICATES FEW OR NO CLOUDS BELOW 12,000 FEET WITH NO
SIGNIFICANT WEATHER AND/OR OBSTRUCTIONS TO VISIBILITY.


NDZ001>003-009>011-017-270100-
NORTHWEST NORTH DAKOTA

CITY           SKY/WX    TMP DP  RH WIND       PRES   REMARKS
WILLISTON      MOCLDY    41  32  70 SW3       29.92S
6HR MIN TEMP:  41; 6HR MAX TEMP:  50;

MINOT          PTCLDY    36  30  79 E5        29.94R
MINOT AFB      CLEAR     35  35  99 S5        29.93S
$$

NDZ018>021-031>035-040>046-270100-
SOUTHWEST NORTH DAKOTA

CITY           SKY/WX    TMP DP  RH WIND       PRES   REMARKS
BISMARCK       MOCLDY    36  31  82 SE5       29.97S
6HR MIN TEMP:  36; 6HR MAX TEMP:  50;

DICKINSON      MOCLDY    40  30  67 S6        29.92S
GARRISON         N/A     38  33  82 CALM      29.94S
6HR MIN TEMP:  38; 6HR MAX TEMP:  48;

HETTINGER ARPT PTCLDY    43  33  68 SE3       29.96F
$$

NDZ004>008-012>016-024-026-027-054-270100-
NORTHEAST NORTH DAKOTA

CITY           SKY/WX    TMP DP  RH WIND       PRES   REMARKS
GRAND FORKS    MOCLDY    28  25  88 N7        29.97R
GRND FRKS AFB  PTCLDY    28  25  88 NE3       29.96R
DEVILS LAKE    CLOUDY    34  28  80 W5        29.94S
$$

NDZ022-023-025-028>030-036>039-047>053-270100-
SOUTHEAST NORTH DAKOTA

CITY           SKY/WX    TMP DP  RH WIND       PRES   REMARKS
FARGO          MOCLDY    31  26  82 N12       29.96R
6HR MIN TEMP:  31; 6HR MAX TEMP:  44;

JAMESTOWN      CLEAR     33  30  88 NW7       29.95S
$$




USA.gov is the U.S. government's official web portal to all federal, state and local government web resources and services.